Tracking 31027 objects as of 19-Jul-2025
HD Live streaming from Space Station
objects crossing your sky now

STARLINK-1351

Track STARLINK-1351 now!
10-day predictions
STARLINK-1351 is classified as:


NORAD ID: 45697
Int'l Code: 2020-035AS
Perigee: 553.3 km
Apogee: 555.3 km
Inclination: 53.1 °
Period: 95.6 minutes
Semi major axis: 6925 km
RCS: Unknown
Launch date: June 4, 2020
Source: United States (US)
Launch site: AIR FORCE EASTERN TEST RANGE (AFETR)
Your satellite tracking list
Your tracking list is empty




NASA's NSSDC Master Catalog

Two Line Element Set (TLE):
1 45697U 20035AS  25199.86434958  .00000980  00000-0  84664-4 0  9993
2 45697  53.0568   6.3017 0001405  82.2761 277.8387 15.06415146283911
Source of the keplerian elements: AFSPC